Location: Clason Point
(40.8136°N, 73.8618°W)
Time: 07:38:00
(UTC+00:00)

Cosmos 2237 Rocket - Pass Details

Date: 16 September 2019
Orbit: 833 x 852 km, 71.0° (Epoch: 18 October)

Event Time Altitude Azimuth Distance (km) Brightness Sun altitude
Rises 23:34:35 0° 350° (N) 3,422 5.6 -6.7°
Reaches altitude 10° 23:38:20 10° 15° (NNE) 2,485 4.6 -7.4°
Maximum altitude 23:41:20 14° 47° (NE) 2,187 4.0 -8.0°
Drops below altitude 10° 23:44:20 10° 79° (E) 2,481 4.1 -8.6°
Enters shadow 23:44:45 - 83° (E) 2,562 4.1 -8.6°
